Change the Weather History Date:

Saturday, March 23, 2013

  Actual Average Record
Temperature  
Mean Temperature 27 °F 42 °F  
Max Temperature 34 °F 56 °F 73 °F (1986)
Min Temperature 20 °F 27 °F -2 °F (1952)
Degree Days  
Heating Degree Days 38 23  
Month to date heating degree days 584 609  
Since 1 July heating degree days 5638 5606  
Cooling Degree Days 0 0  
Month to date cooling degree days 0 0  
Year to date cooling degree days 0 0  
Moisture  
Dew Point 12 °F    
Average Humidity 54    
Maximum Humidity 68    
Minimum Humidity 39    
Precipitation  
Precipitation T in 0.05 in 0.35 in (1941)
Month to date precipitation 0.55 0.78  
Year to date precipitation 1.32 2.35  
Sea Level Pressure  
Sea Level Pressure 30.01 in    
Wind  
Wind Speed 15 mph (WNW)    
Max Wind Speed 29 mph    
Max Gust Speed 35 mph    
Visibility 9 miles    
Events Snow    
T = Trace of Precipitation, MM = Missing Value Source: NWS Daily Summary

Daily Weather History Graph

Daily Weather History Graph

Search for Another Location

Airport or City:

Trip Planner

Search our weather history database for the weather conditions in past years. The results will help you decide how hot, cold, wet, or windy it might be!

Date:

Astronomy

Mar. 23, 2013 Rise Set
Actual Time 7:09 AM MDT 7:26 PM MDT
Civil Twilight 6:42 AM MDT 7:53 PM MDT
Nautical Twilight 6:10 AM MDT 8:24 PM MDT
Astronomical Twilight 5:38 AM MDT 8:56 PM MDT
Moon 3:56 PM MDT (3/23) 4:46 AM MDT (3/23)
Length of Visible Light 13h 10m
Length of Day
12h 17m
Waxing Gibbous, 85% of the Moon is Illuminated
Mar 23
Waxing Gibbous
Mar 27
Full
Apr 2
Last Quarter
Apr 10
New
Apr 18
First Quarter

Hourly Weather History & Observations

Time (MDT) Temp. Windchill Dew Point Humidity Pressure Visibility Wind Dir Wind Speed Gust Speed Precip Events Conditions
12:53 AM 28.0 °F 14.6 °F 15.1 °F 58% 29.84 in 10.0 mi NW 20.7 mph 29.9 mph N/A   Mostly Cloudy
1:53 AM 26.1 °F 13.6 °F 12.9 °F 58% 29.82 in 10.0 mi NW 16.1 mph 25.3 mph N/A   Partly Cloudy
2:53 AM 26.1 °F 13.6 °F 12.9 °F 58% 29.82 in 10.0 mi WNW 16.1 mph - N/A   Scattered Clouds
3:53 AM 25.0 °F 11.7 °F 12.0 °F 58% 29.85 in 10.0 mi WNW 17.3 mph - N/A   Clear
4:53 AM 25.0 °F 12.6 °F 12.0 °F 58% 29.87 in 10.0 mi WNW 15.0 mph - N/A   Overcast
5:53 AM 24.1 °F 9.0 °F 10.0 °F 55% 29.89 in 10.0 mi WNW 21.9 mph - N/A   Overcast
6:53 AM 23.0 °F 13.1 °F 14.0 °F 68% 29.92 in 10.0 mi WNW 9.2 mph - N/A   Mostly Cloudy
7:53 AM 24.1 °F 14.4 °F 12.0 °F 60% 29.94 in 9.0 mi WNW 9.2 mph - 0.00 in   Overcast
8:53 AM 27.0 °F 20.5 °F 10.9 °F 51% 29.94 in 10.0 mi Variable 5.8 mph - 0.00 in   Partly Cloudy
9:53 AM 27.0 °F 14.7 °F 9.0 °F 47% 29.96 in 10.0 mi West 16.1 mph - N/A   Overcast
10:53 AM 27.0 °F 13.5 °F 12.9 °F 56% 29.99 in 10.0 mi West 19.6 mph 27.6 mph 0.00 in   Overcast
11:53 AM 26.1 °F 16.2 °F 16.0 °F 66% 30.01 in 5.0 mi WSW 10.4 mph - 0.00 in Snow Light Snow
12:53 PM 28.9 °F 16.9 °F 10.9 °F 47% 30.01 in 10.0 mi West 17.3 mph 25.3 mph N/A   Overcast
1:53 PM 33.1 °F 22.6 °F 12.9 °F 43% 30.01 in 9.0 mi West 16.1 mph 29.9 mph N/A   Mostly Cloudy
2:41 PM 28.4 °F 16.6 °F 15.8 °F 59% 29.97 in 2.5 mi West 16.1 mph 32.2 mph 0.00 in Snow Light Snow
2:50 PM 28.4 °F 13.5 °F 15.8 °F 59% 29.98 in 3.0 mi WNW 26.5 mph 32.2 mph 0.00 in Snow Light Snow
2:53 PM 28.9 °F 14.0 °F 14.0 °F 54% 30.04 in 5.0 mi WNW 27.6 mph 32.2 mph 0.00 in Snow Light Snow
3:53 PM 30.9 °F 19.4 °F 12.0 °F 46% 30.06 in 10.0 mi WNW 17.3 mph 28.8 mph 0.00 in   Overcast
4:53 PM 32.0 °F 20.5 °F 10.9 °F 42% 30.06 in 10.0 mi WNW 18.4 mph 34.5 mph N/A   Overcast
5:53 PM 30.9 °F 19.1 °F 10.0 °F 42% 30.09 in 10.0 mi WNW 18.4 mph 26.5 mph N/A   Partly Cloudy
6:53 PM 28.9 °F 16.1 °F 10.9 °F 47% 30.14 in 10.0 mi WNW 19.6 mph 27.6 mph N/A   Partly Cloudy
7:53 PM 27.0 °F 13.9 °F 10.9 °F 51% 30.16 in 10.0 mi West 18.4 mph - N/A   Clear
8:53 PM 26.1 °F 16.8 °F 10.9 °F 53% 30.18 in 10.0 mi WNW 9.2 mph - N/A   Clear
9:53 PM 25.0 °F 17.1 °F 8.1 °F 49% 30.21 in 10.0 mi WNW 6.9 mph - N/A   Clear
10:53 PM 23.0 °F 10.6 °F 9.0 °F 55% 30.22 in 10.0 mi West 13.8 mph - N/A   Clear
11:53 PM 21.0 °F 13.4 °F 10.9 °F 65% 30.23 in 10.0 mi WSW 5.8 mph - N/A   Overcast